星链-30940 (STARLINK-30940 )

导读 | 豆包AI

STARLINK-30940是美国SpaceX公司“星链”星座的一颗低轨通信卫星,于北京时间2023年11月22日发射入轨,运行在约550公里高度的近地轨道。它采用星链v2.0 mini标准化设计,搭载Ku/Ka波段通信载荷与霍尔推进系统,具备自主空间避撞能力,旨在为全球用户提供高速低延迟宽带互联网服务,补全星链全球组网的星座部署,目前卫星处于在轨运行状态。

Basic Information
目录编号:
58409
目录名称:
STARLINK-30940
国际标识:
2023-180H
轨道中心:
EARTH
卫星名称:
星链-30940
卫星全名:
星链-30940 (STARLINK-30940 )
卫星状态:
在轨 (已飞行890 天)
发射日期:
2023-11-22 UTC
国别 :
美国 (US)
星等 :
--
Orbit Information
数据来源 国际轨道数据 AOE轨道数据
星历时间 2026-04-30T22:53:00+0800
6小时前
查看轨道信息
2026-04-28T17:00:00+0800
2天前
查看轨道信息
半长轴 6860.794km 6861.191km
偏心率 0.0001424 0.00009
轨道倾角 43.002° 42.996°
近地点辐角 316.315° 94.355°
升交点赤经 334.189° 346.864°
平近点角 43.758° 144.694°
近地点 481.68km 482.436km
远地点 483.634km 483.672km
周期 94.259分钟 94.267分钟
每日圈数 15.27711 15.275784
Detailed Information
固有亮度:
5
最大亮度:
0.3
卫星平台:
Starlink v2.0 mini
覆盖范围:
全球
运营商:
太空探索技术公司
运营商所在国:
美国
制造商(研发单位):
太空探索技术公司
制造商所在国:
美国
使用方式:
暂无
Satellite Introduction
星链(Starlink)计划是由太空探索技术公司(SpaceX)提出的一个巨型低轨卫星互联网星座项目,计划在2019年至2024年间在太空搭建由约1.2万颗卫星组成的“星链”网络,其中1584颗将部署在地球上空550千米处的近地轨道,并从2020年开始工作。该卫星仍在工作。
2D Orbit Map
3D Orbit Map
Orbit Altitude Analysis Chart
Orbit Inclination Analysis Chart
Orbit Comprehensive Analysis Chart
View Comprehensive Chart